Weather in Hun

Libya     29°05′50″N   15°56′07″E
temp.,
°C
wind,
m/s
gust,
m/s
humid.,
%
clouds,
%
prec.,
mm/h
press.,
hPa
HPBL,
m
18 january, mon
mon1823:00+10wnw33590 0.0 102523
02:00+9wnw34630 0.0 102533
05:00+7wnw34730 0.0 102531
08:00+6w34770 0.0 102528
11:00+12wnw56400 0.0 1027664
14:00+15wnw44320 0.0 1024885
17:00+17wnw45290 0.0 10231242
20:00+13nw34360 0.0 102423
19 january, tue
tue1923:00+12wnw45380 0.0 102645
02:00+9nw34580 0.0 102733
05:00+8wnw34740 0.0 102733
08:00+6nw34790 0.0 102838
11:00+12nnw67580 0.0 1030809
14:00+15n56510 0.0 10271219
17:00+15n454553 0.0 10261454
20:00+12nne345327 0.0 102923
20 january, wed
wed2023:00+12ene696755 0.0 1031562
02:00+9ese477475 0.1 1031268
05:00+7ese338010 0.0 103038
08:00+6ese33895 0.0 103126
11:00+12ese45580 0.0 1031715
14:00+15ese44440 0.0 10291285
17:00+16e44370 0.0 10271475
20:00+12e59480 0.0 1029170
21 january, thu
thu2123:00+10se57490 0.0 1029126
02:00+8se47460 0.0 1029112
05:00+7se45430 0.0 102855
08:00+6se23450 0.0 102924
11:00+12sse34270 0.0 1028553
14:00+16sse33200 0.0 10251169
17:00+17ese23188 0.0 10231322
20:00+13ese452235 0.0 102541
22 january, fri
fri2223:00+10se453018 0.0 102557
02:00+9sse34379 0.0 102523
05:00+7ese22420 0.0 102423
08:00+6se12430 0.0 102522
11:00+15sw23210 0.0 1025450
14:00+18nw12160 0.0 10231083
17:00+18nne21150 0.0 1021833
20:00+12ene22220 0.0 102123